Location: Beekmeers
(50.8953°N, 3.6968°E)
Time: 04:12:32
(UTC+00:00)

CZ-2C R/B - Pass Details

Date: 23 May 2024
Orbit: 703 x 904 km, 98.2° (Epoch: 21 June)

Event Time Altitude Azimuth Distance (km) Brightness Sun altitude
Rises 01:34:54 0° 17° (NNE) 3,539 8.2 -14.3°
Reaches altitude 10° 01:37:26 10° 23° (NNE) 2,597 7.2 -14.1°
Maximum altitude 01:43:05 49° 98° (E) 1,147 4.0 -13.7°
Enters shadow 01:48:29 11° 173° (S) 2,501 5.2 -13.2°
